Ogden, KS

5:51 PM CDT on August 29, 2016 (GMT -0500)
Manhattan Regional

Weather History for KMHK - July, 2014

Change the Weather History Date:

Saturday, July 12, 2014

  Actual Average Record
Temperature  
Mean Temperature 87 °F 79 °F  
Max Temperature 100 °F 91 °F 100 °F (2012)
Min Temperature 74 °F 67 °F 54 °F (1999)
Degree Days  
Heating Degree Days 0 0  
Month to date heating degree days 0 0  
Since 1 June heating degree days 0 11  
Since 1 July heating degree days 0 0  
Cooling Degree Days 22 14  
Month to date cooling degree days 160 162  
Year to date cooling degree days 668 532  
Since 1 June cooling degree days 465 432  
Growing Degree Days 37 (Base 50)    
Moisture  
Dew Point 66 °F    
Average Humidity 49    
Maximum Humidity 64    
Minimum Humidity 33    
Precipitation  
Precipitation 0.05 in 0.12 in 0.39 in (2008)
Month to date precipitation 0.32 1.72  
Year to date precipitation 12.99 18.01  
Sea Level Pressure  
Sea Level Pressure 29.95 in    
Wind  
Wind Speed 12 mph (SW)    
Max Wind Speed 21 mph    
Max Gust Speed 27 mph    
Visibility 10 miles    
Events Rain    
T = Trace of Precipitation, MM = Missing Value Source: NWS Daily Summary

Daily Weather History Graph

Daily Weather History Graph

Search for Another Location

Airport or City:

Trip Planner

Search our weather history database for the weather conditions in past years. The results will help you decide how hot, cold, wet, or windy it might be!

Date:

Astronomy

Jul. 12, 2014 Rise Set
Actual Time 6:10 AM CDT 8:53 PM CDT
Civil Twilight 5:39 AM CDT 9:24 PM CDT
Nautical Twilight 4:59 AM CDT 10:04 PM CDT
Astronomical Twilight 4:15 AM CDT 10:48 PM CDT
Moon 8:57 PM CDT (7/12) 6:30 AM CDT (7/12)
Length of Visible Light 15h 45m
Length of Day
14h 42m
Full, 100% of the Moon is Illuminated
Jul 12
Full
Jul 18
Last Quarter
Jul 26
New
Aug 3
First Quarter
Aug 10
Full

Hourly Weather History & Observations

Time (CDT) Temp. Heat Index Dew Point Humidity Pressure Visibility Wind Dir Wind Speed Gust Speed Precip Events Conditions
12:52 AM 80.1 °F 82.3 °F 66.9 °F 64% 29.99 in 10.0 mi SSW 10.4 mph - N/A   Clear
1:52 AM 80.1 °F 82.1 °F 66.0 °F 62% 29.98 in 10.0 mi SSW 16.1 mph - N/A   Clear
2:52 AM 79.0 °F - 64.9 °F 62% 29.97 in 10.0 mi SW 13.8 mph 23.0 mph N/A   Clear
3:52 AM 78.1 °F - 64.0 °F 62% 29.97 in 10.0 mi SW 11.5 mph - N/A   Clear
4:52 AM 77.0 °F - 63.0 °F 62% 29.98 in 10.0 mi SW 12.7 mph - N/A   Clear
5:52 AM 75.9 °F - 63.0 °F 64% 29.99 in 10.0 mi SSW 10.4 mph - N/A   Clear
6:52 AM 75.0 °F - 63.0 °F 66% 29.99 in 10.0 mi SW 10.4 mph - N/A   Clear
7:52 AM 78.1 °F - 64.0 °F 62% 29.99 in 10.0 mi SSW 11.5 mph - N/A   Clear
8:52 AM 82.9 °F 84.6 °F 64.9 °F 54% 29.99 in 10.0 mi SSW 12.7 mph - N/A   Clear
9:52 AM 87.1 °F 88.9 °F 64.9 °F 48% 29.98 in 10.0 mi SW 12.7 mph - N/A   Clear
10:52 AM 91.0 °F 93.8 °F 66.0 °F 44% 29.97 in 10.0 mi SW 16.1 mph - N/A   Clear
12:52 PM 96.1 °F 99.9 °F 66.9 °F 38% 29.95 in 10.0 mi SW 17.3 mph 24.2 mph N/A   Clear
1:52 PM 98.1 °F 101.8 °F 66.0 °F 35% 29.94 in 10.0 mi SW 15.0 mph - N/A   Clear
2:52 PM 99.0 °F 102.9 °F 66.0 °F 34% 29.93 in 10.0 mi SW 15.0 mph 26.5 mph N/A   Clear
3:52 PM 98.1 °F 101.2 °F 64.9 °F 34% 29.92 in 10.0 mi SSW 13.8 mph - N/A   Partly Cloudy
4:52 PM 98.1 °F 101.8 °F 66.0 °F 35% 29.91 in 10.0 mi SW 16.1 mph 24.2 mph N/A   Scattered Clouds
5:52 PM 97.0 °F 101.0 °F 66.9 °F 37% 29.91 in 10.0 mi SW 15.0 mph - N/A   Clear
6:52 PM 95.0 °F 99.5 °F 68.0 °F 41% 29.89 in 10.0 mi SSW 13.8 mph - N/A   Clear
7:52 PM 91.9 °F 95.4 °F 66.9 °F 44% 29.89 in 10.0 mi SSW 11.5 mph - N/A   Clear
8:52 PM 86.0 °F 88.8 °F 66.9 °F 53% 29.89 in 10.0 mi SW 6.9 mph - N/A   Clear
9:52 PM 84.0 °F 86.5 °F 66.9 °F 56% 29.91 in 10.0 mi South 4.6 mph - N/A   Clear
10:52 PM 82.9 °F 85.8 °F 68.0 °F 60% 29.92 in 10.0 mi SW 6.9 mph - N/A   Mostly Cloudy
11:52 PM 78.1 °F - 70.0 °F 76% 29.91 in 7.0 mi SSW 9.2 mph - 0.05 in Rain Light Rain